Location: Mount Graham
(32.7016°N, 109.8912°W)
Time: 02:51:17
(UTC-07:00)

Daily predictions for brighter satellites

Satellite Brightness Start Highest point End
(mag) Time Altitude Azimuth Time Altitude Azimuth Time Altitude Azimuth
CZ-3C R/B 4.4 03:34:31 36° S 03:38:34 43° SE 04:45:13 10° E
CZ-3 R/B 4.0 03:28:26 10° SW 03:55:39 39° S 04:03:11 10° ESE
USA 215 4.0 04:12:11 10° NE 04:18:27 48° SE 04:20:10 40° SSE
Lacrosse 5 3.8 04:24:03 23° NE 04:24:03 23° NE 04:26:00 10° NE
Cosmos 2074 Rocket 3.9 04:46:02 10° S 04:52:18 89° E 04:58:35 10° N
Cosmos 1603 4.0 05:01:03 51° N 05:01:03 51° N 05:05:23 10° NNE
Cosmos 2369 Rocket 4.2 04:57:04 10° N 05:01:37 24° ENE 05:06:06 10° ESE
GPS 2-05 Rocket1 4.3 05:06:39 37° E 05:06:39 37° E 05:08:56 10° ESE
OAO 3 Copernicus 4.3 05:06:03 68° N 05:06:03 68° N 05:11:08 10° E
Cosmos 44 3.9 05:00:56 10° SSW 05:06:14 63° ESE 05:11:28 10° NE
Cosmos 2184 Rocket 3.8 05:04:32 10° SSW 05:10:38 67° W 05:16:48 10° N
NOAA 6 4.1 05:07:35 10° NNE 05:12:44 76° ESE 05:17:51 10° S
Cosmos 1536 4.5 05:10:32 10° SSE 05:14:07 33° E 05:17:45 10° NNE
Cosmos 1536 Rocket 3.5 05:20:26 65° WSW 05:20:26 65° WSW 05:24:34 10° S
Cosmos 1633 2.7 05:18:52 10° S 05:22:30 71° E 05:26:07 10° N
Cosmos 1943 3.2 05:17:05 10° SSW 05:22:41 81° ESE 05:28:20 10° NNE
Cosmos 921 Rocket 3.3 05:24:13 51° WSW 05:24:13 51° WSW 05:28:13 10° S
USA 229 DEB 4.1 05:19:13 10° SSW 05:25:58 63° ESE 05:32:47 10° NE
USA 229 4.1 05:19:20 10° SSW 05:26:05 63° ESE 05:32:53 10° NE
Cosmos 2154 Rocket 4.0 05:20:25 10° S 05:26:37 82° E 05:32:50 10° N
Thor Agena Rocket 4.0 05:30:00 10° SSW 05:34:36 36° W 05:34:45 36° W
Okean 1 Rocket 2.9 05:32:19 10° SSW 05:36:42 69° W 05:41:04 10° N
Cosmos 1943 Rocket 4.3 05:35:30 10° N 05:39:39 22° ENE 05:43:49 10° ESE
Cosmos 2056 Rocket 3.3 05:40:01 21° NNW 05:43:28 68° WSW 05:48:31 10° S
COSMO-SKYMED 1 2.5 05:39:30 10° SSE 05:43:51 87° ENE 05:48:11 10° N
Cosmos 1238 Rocket 4.4 05:43:22 30° WNW 05:44:32 32° W 05:49:55 10° SSW
PSLV R/B 3.5 05:44:43 44° NNW 05:45:34 62° NNE 05:48:54 10° ESE
Cosmos 1602 4.2 05:48:00 10° SSW 05:51:41 37° W 05:55:23 10° NNW
Cosmos 44 Rocket 4.3 05:52:42 26° WNW 05:53:30 27° NW 05:57:50 10° N
Ariane Rocket 2.9 05:50:25 10° N 05:55:28 78° WNW 06:00:31 10° SSW
Cosmos 1624 Rocket 4.3 05:53:13 18° NW 05:56:49 45° WSW 06:01:50 10° S
BREEZE M DEB (TANK) 4.2 05:41:21 17° WNW 05:57:04 73° NNE 06:01:11 10° ESE
CZ-2C R/B 4.5 05:53:05 10° NE 05:57:36 31° E 06:02:00 10° SSE
ASTRO E2 3.1 05:56:26 19° WSW 05:59:11 58° S 06:03:10 10° E
SL-24 DEB 4.4 05:54:46 10° S 05:59:32 83° E 06:04:21 10° N
Cosmos 1300 Rocket 4.5 05:57:09 10° SW 06:00:53 26° WNW 06:04:38 10° NNW
USA 215 3.7 05:55:17 10° NNE 06:01:18 41° NW 06:07:18 10° WSW
Meteor 1-28 Rocket 3.3 05:59:35 10° SSE 06:03:21 77° ENE 06:07:10 10° N
Lacrosse 5 3.2 06:03:19 19° NW 06:04:17 20° NW 06:07:59 10° N
Okean 1-7 Rocket 3.5 06:00:15 10° NNW 06:04:34 60° W 06:08:52 10° S
Meteor 1-19 Rocket 4.3 06:03:52 10° NNW 06:09:35 59° W 06:15:10 10° S
Meteor 1-11 Rocket 4.3 06:09:38 10° SW 06:14:59 36° WNW 06:20:15 10° N
GRACE-2 4.1 06:13:34 10° N 06:16:21 71° E 06:19:06 10° S
GRACE-1 4.0 06:13:59 10° N 06:16:46 74° E 06:19:32 10° S
Cosmos 2218 Rocket 4.3 06:10:26 10° S 06:16:48 78° E 06:23:12 10° N
Cosmos 1346 Rocket 4.5 06:17:06 14° W 06:17:12 14° W 06:19:23 10° WSW
Cosmos 1461 3.8 06:13:45 10° SSW 06:18:02 55° ESE 06:22:11 10° NE
Cosmos 1295 Rocket 4.5 06:11:59 10° SSW 06:18:14 66° W 06:24:27 10° N
Cosmos 1340 3.4 06:14:38 10° N 06:18:22 56° E 06:22:05 10° SSE
Tiangong 2 3.0 06:17:36 12° NNW 06:19:44 20° NNE 06:22:10 10° ENE
Nadezhda 3 Rocket 4.4 06:18:44 10° NNW 06:24:41 42° W 06:30:35 10° SSW
IDEFIX/ARIANE 42P 3.3 06:20:07 10° NNE 06:25:15 59° E 06:30:22 10° S
Cosmos 2084 3.5 06:23:03 10° SW 06:26:50 44° WNW 06:30:30 10° NNE
CSL-04 Rocket 3.9 06:22:04 10° N 06:27:22 49° WNW 06:32:37 10° SW
Cosmos 1455 Rocket 3.1 06:23:49 10° S 06:28:07 82° E 06:32:27 10° N
Atlas Centaur 2 4.5 06:24:40 10° SW 06:31:43 33° SSE 06:37:50 10° E
USA 129 1.6 06:30:05 10° S 06:32:05 59° W 06:34:13 10° NNW
Cosmos 1452 Rocket 3.6 06:27:30 10° NNW 06:32:41 58° WSW 06:37:49 10° S
CSL-04 Debris 4.4 06:28:18 10° N 06:33:35 51° WNW 06:38:51 10° SSW
Meteor 1-23 Rocket 4.3 06:29:41 10° NNW 06:35:06 56° W 06:40:31 10° S
COSMOS 2406 3.6 06:31:46 10° S 06:37:22 69° ESE 06:43:00 10° NNE
Meteor 2-4 Rocket 4.2 06:37:40 10° NNW 06:42:50 40° W 06:48:07 10° SSW
GPS 2-05 Rocket1 4.3 06:40:14 10° W 06:43:17 27° SSW 06:46:23 10° SSE
Okean 2 3.6 06:39:34 10° NNW 06:43:38 54° W 06:47:40 10° S
NOSS 3-1 (C) 3.4 06:39:38 10° SSW 06:45:19 88° ESE 06:51:36 10° NNE
Cosmos 2369 Rocket 2.7 06:40:26 10° NW 06:45:42 40° WSW 06:50:56 10° S
Cosmos 1727 Rocket 4.3 06:39:48 10° N 06:46:00 75° E 06:52:11 10° S
